OPS 5798 DEB, 901

Orbit data source: Space-Track

OPS 5798 DEB, 901 is space debris in LEO originally from a launch on Tue, 06 Oct 1964 UTC launched from the Air Force Western Test Range (AFWTR). Debris objects in space refer to the collection of defunct objects orbiting the Earth. Examples of debris include non-operational satellites, rocket bodies, and fragments generated from explosions, collisions, or faulty payload assembly.

Loading next visibility...
Identifier
901, 1964-063D
Orbit
LEO
Country
Flag of USUS
Related business
Manufacturer
NAFI?
Mission
Spacecraft
Bus & Motor
Unknown
Mass
~20 kg wet, ~20 kg dry
Launch date (UTC)
1964-10-06 (62 years ago)
Launch vehicle
Unknown
Launch site
Air Force Western Test Range (AFWTR)
Object type
Payload
Rocket body
Debris
Shape & HBR
Unknown shape, 0.6 m
Radar Cross Section
Large (>1 m²)

Expand to show TLE details & history
Last TLE update: 13 hours ago

TLE from 13 hours ago
0 OPS 5798 DEB
1 00901U 64063D   26127.28482887  .00000132  00000-0  17943-3 0  9997
2 00901  90.2365  75.4473 0017119 238.6213 278.7907 13.55139443 40924
Epoch: 2026-05-07T06:50Z
TLE epoch observation values (Epoch: 2026-05-07T06:50:09.214Z)
Latitude
22.79707°
Longitude
-72.12537°
Altitude
1,054.313 km
Speed
7.328 km/s
True Right ascension
17h 02m 11s
True Declination
22° 40' 46"
Sunlit
Object was in full shadow at epoch
Visualization orbit readout
Latitude
Unknown
Longitude
Unknown
Altitude
Unknown
Speed
Unknown
Apparent Right ascension
Unknown
Apparent Declination
Unknown
Sunlit
N/A
Visualization observer readout
Local Sidereal Time
03:22:51
Azimuth
Unknown
Elevation
Unknown
Doppler factor
Unknown
Orbital elements
Apogee altitude
1,063.169 km
Perigee altitude
1,037.735 km
Semi-major axis
7,428.589 km
Eccentricity
0.00171
Inclination
90.2365°
RAAN
75.4473°
Arg. of periapsis
238.6213°
True anomaly
278.59677°
Mean anomaly
278.7907°
Eccentric anomaly
278.69374°
Mean motion
3.38988 °/min
Orbital period
106.2 mins
BSTAR
0.00017943
Loading maneuver chart data...
Computing Atmospheric mass density...
Loading historical data...
Loading historical data...
Loading historical data...
Loading historical data...
Loading historical data...
Loading historical data...
Loading historical data...

Documentation

Showing up to 5 results
|